GSAT0219 (GALILEO 23)

Last updated on Sat Sep 19 2026 00:02:49 GMT+0000 (Coordinated Universal Time)

1 43566U 18060C 26261.18573624 -.00000095 00000+0 00000+0 0 9995 2 43566 57.1346 339.2746 0003548 271.8636 88.1484 1.70476457 50772
UTC large
Height (km)
Speed (km/s)
/
Latitude / Longitude
Inclination (degrees)
Orbital Period (minutes)
Azimuth
Elevation
Range (km)
Doppler Factor

Next 0 passes for location: London (51.5072 / 0.1276)

No passes found over London.